COSMOS 1275 DEB, 39941

Orbit data source: Space-Track

COSMOS 1275 DEB, 39941 is space debris in LEO originally from a launch on Thu, 04 Jun 1981 UTC launched from the Plesetsk Missile And Space Complex (PKMTR). Debris objects in space refer to the collection of defunct objects orbiting the Earth. Examples of debris include non-operational satellites, rocket bodies, and fragments generated from explosions, collisions, or faulty payload assembly.

Loading next visibility...
Identifier
39941, 1981-053NB
Orbit
LEO
Country
Flag of CISCIS
Related business
Manufacturer
Unknown
Mission
Spacecraft
Bus & Motor
Unknown
Mass
Unknown
Launch date (UTC)
1981-06-04 (45 years ago)
Launch vehicle
Unknown
Launch site
Plesetsk Missile And Space Complex (PKMTR)
Object type
Payload
Rocket body
Debris
Shape & HBR
Unknown shape, 0.1 m
Radar Cross Section
Small (<0.1 m²)

Expand to show TLE details & history
Last TLE update: 5 days ago

TLE from 5 days ago
0 COSMOS 1275 DEB
1 39941U 81053NB  26140.81282215  .00001137  00000-0  93004-3 0  9996
2 39941  83.0191 163.9882 0093783 247.3118 111.8110 13.86826612603479
Epoch: 2026-05-20T19:30Z
TLE epoch observation values (Epoch: 2026-05-20T19:30:27.833Z)
Latitude
0.00001°
Longitude
-7.09477°
Altitude
968.747 km
Speed
7.354 km/s
True Right ascension
10h 55m 57s
True Declination
0° 00' 00"
Sunlit
Object was in daylight at epoch
Visualization orbit readout
Latitude
Unknown
Longitude
Unknown
Altitude
Unknown
Speed
Unknown
Apparent Right ascension
Unknown
Apparent Declination
Unknown
Sunlit
N/A
Visualization observer readout
Local Sidereal Time
07:19:37
Azimuth
Unknown
Elevation
Unknown
Doppler factor
Unknown
Orbital elements
Apogee altitude
1,005.505 km
Perigee altitude
868.3 km
Semi-major axis
7,315.039 km
Eccentricity
0.00938
Inclination
83.0191°
RAAN
163.9882°
Arg. of periapsis
247.3118°
True anomaly
112.80437°
Mean anomaly
111.811°
Eccentric anomaly
112.30812°
Mean motion
3.46911 °/min
Orbital period
103.77 mins
BSTAR
0.00093004
Loading maneuver chart data...
Computing Atmospheric mass density...
Loading historical data...
Loading historical data...
Loading historical data...
Loading historical data...
Loading historical data...
Loading historical data...
Loading historical data...

Documentation

Showing up to 5 results
|